{"data":{"norad_id":53401,"epoch":"2026-05-25T02:58:30.614016Z","epoch_age_seconds":67490,"freshness":"FRESH","line1":"1 53401U 22097P   26145.12396544  .00003201  00000+0  21898-3 0  9991","line2":"2 53401  53.2155 140.9952 0000968  63.1729 296.9362 15.08862990210050","mean_motion":15.0886299,"eccentricity":9.68e-5,"inclination_deg":53.2155,"raan_deg":140.9952,"arg_perigee_deg":63.1729,"mean_anomaly_deg":296.9362,"bstar":0.00021898,"rev_number":21005,"period_min":95.436100530241,"perigee_km":539.00347460416,"apogee_km":540.34276264313,"semimajor_km":6917.8101186236,"source":"CELESTRAK","updated_at":"2026-05-25T13:38:17.398044Z"}}